User: anonymous   Login
Location: Unspecified
(0.0000°N, 0.0000°E)
Time: 21:15:53
(UTC+00:00)
Language:

Megsat 1 - Orbit

View from above orbital plane
View from above orbital plane
View from above satellite
View from above satellite

Ground track
Ground track

The orbit data is extracted from the following two-line orbital elements,

1 26545U 00057A   17141.85512524 +.00000013 +00000-0 +19423-4 0  9997
2 26545 064.5531 168.7187 0043798 229.1033 130.6277 14.84746679900446
Epoch (UTC): 21 May 2017 20:31:22
Eccentricity: 0.0043798
inclination: 64.5531°
perigee height: 584 km
apogee height: 645 km
right ascension of ascending node: 168.7187°
argument of perigee: 229.1033°
revolutions per day: 14.84746679
mean anomaly at epoch: 130.6277°
orbit number at epoch: 90044

The dashed part of the orbit path shows where the satellite is in the earth's shadow,  

DLR